| time (UTC) | temp C | wind direction | speed KPH | gust KPH | rain 1hr cm | rain 24hr cm | rain mn cm | humidity % | barometer mb |
| 20260831040203 | 22 | 0.0 | 3.2 | 0.00 | 0.00 | 0.00 | 54 | 1029.9 | |
| 20260831035343 | 23 | 0.0 | 3.2 | 0.00 | 0.00 | 0.00 | 51 | 1030.2 | |
| 20260831034022 | 22 | 0.0 | 1.6 | 0.00 | 0.00 | 0.00 | 49 | 1030.2 | |
| 20260831033022 | 23 | 180 | 1.6 | 3.2 | 0.00 | 0.00 | 0.00 | 48 | 1030.3 |
| 20260831032021 | 23 | 0.0 | 1.6 | 0.00 | 0.00 | 0.00 | 48 | 1030.5 | |
| 20260831031021 | 23 | 0.0 | 1.6 | 0.00 | 0.00 | 0.00 | 50 | 1030.4 | |
| 20260831030200 | 22 | 0.0 | 1.6 | 0.00 | 0.00 | 0.00 | 51 | 1030.8 | |
| 20260831025020 | 22 | 0.0 | 1.6 | 0.00 | 0.00 | 0.00 | 50 | 1030.9 | |
| 20260831024021 | 22 | 0.0 | 1.6 | 0.00 | 0.00 | 0.00 | 49 | 1031.0 | |
| 20260831023022 | 22 | 0.0 | 3.2 | 0.00 | 0.00 | 0.00 | 58 | 1031.2 | |
| 20260831022020 | 22 | 180 | 1.6 | 3.2 | 0.00 | 0.00 | 0.00 | 54 | 1031.3 |
| 20260831021021 | 22 | 0.0 | 3.2 | 0.00 | 0.00 | 0.00 | 59 | 1031.5 | |
| 20260831020021 | 22 | 0.0 | 1.6 | 0.00 | 0.00 | 0.00 | 57 | 1031.7 | |
| 20260831015202 | 21 | 0.0 | 1.6 | 0.00 | 0.00 | 0.00 | 60 | 1031.9 | |
| 20260831014022 | 21 | 0.0 | 3.2 | 0.00 | 0.00 | 0.00 | 61 | 1031.9 | |
| 20260831013021 | 21 | 0.0 | 1.6 | 0.00 | 0.00 | 0.00 | 61 | 1032.0 | |
| 20260831012021 | 20 | 0.0 | 1.6 | 0.00 | 0.00 | 0.00 | 66 | 1032.2 | |
| 20260831011021 | 19 | 0.0 | 1.6 | 0.00 | 0.00 | 0.00 | 68 | 1032.5 | |
| 20260831010022 | 19 | 0.0 | 1.6 | 0.00 | 0.00 | 0.00 | 70 | 1032.5 | |
| 20260831005021 | 18 | 0.0 | 1.6 | 0.00 | 0.00 | 0.00 | 71 | 1032.6 | |
| 20260831004021 | 18 | 0.0 | 0.0 | 0.00 | 0.00 | 0.00 | 74 | 1032.6 | |
| 20260831003021 | 18 | 0.0 | 0.0 | 0.00 | 0.00 | 0.00 | 76 | 1032.7 | |
| 20260831002021 | 17 | 0.0 | 1.6 | 0.00 | 0.00 | 0.00 | 75 | 1032.9 | |
| 20260831001021 | 18 | 0.0 | 1.6 | 0.00 | 0.00 | 0.00 | 74 | 1032.8 | |
| 20260831000021 | 17 | 0.0 | 0.0 | 0.00 | 0.00 | 0.00 | 78 | 1032.8 | |
| 20260830235021 | 17 | 0.0 | 1.6 | 0.00 | 0.00 | 0.00 | 76 | 1032.8 | |
| 20260830234201 | 17 | 0.0 | 1.6 | 0.00 | 0.00 | 0.00 | 79 | 1032.9 | |
| 20260830233022 | 16 | 0.0 | 0.0 | 0.00 | 0.00 | 0.00 | 80 | 1033.0 | |
| 20260830232021 | 16 | 0.0 | 0.0 | 0.00 | 0.00 | 0.00 | 80 | 1032.9 | |
| 20260830231021 | 15 | 0.0 | 1.6 | 0.00 | 0.00 | 0.00 | 83 | 1032.8 | |
| 20260830230021 | 14 | 0.0 | 0.0 | 0.00 | 0.00 | 0.00 | 87 | 1032.8 | |
| 20260830225021 | 13 | 0.0 | 0.0 | 0.00 | 0.00 | 0.00 | 89 | 1032.9 | |
| 20260830224020 | 12 | 0.0 | 0.0 | 0.00 | 0.00 | 0.00 | 96 | 1032.8 | |
| 20260830223020 | 11 | 0.0 | 0.0 | 0.00 | 0.00 | 0.00 | 99 | 1032.6 | |
| 20260830222021 | 10 | 0.0 | 0.0 | 0.00 | 0.00 | 0.00 | 99 | 1032.6 | |
| 20260830221021 | 10 | 0.0 | 0.0 | 0.00 | 0.00 | 0.00 | 99 | 1032.4 | |
| 20260830220342 | 8 | 0.0 | 1.6 | 0.00 | 0.00 | 0.00 | 99 | 1032.4 | |
| 20260830215020 | 8 | 0.0 | 1.6 | 0.00 | 0.00 | 0.00 | 99 | 1032.2 | |
| 20260830214202 | 7 | 0.0 | 0.0 | 0.00 | 0.00 | 0.00 | 99 | 1032.1 | |
| 20260830213021 | 7 | 0.0 | 0.0 | 0.00 | 0.00 | 0.00 | 99 | 1032.3 | |
| 20260830212201 | 6 | 0.0 | 0.0 | 0.00 | 0.00 | 0.00 | 98 | 1031.9 | |
| 20260830211200 | 5 | 0.0 | 0.0 | 0.00 | 0.00 | 0.00 | 98 | 1032.0 | |
| 20260830210021 | 5 | 0.0 | 0.0 | 0.00 | 0.00 | 0.00 | 98 | 1031.9 | |
| 20260830205202 | 4 | 0.0 | 0.0 | 0.00 | 0.00 | 0.00 | 98 | 1031.8 | |
| 20260830204021 | 3 | 0.0 | 0.0 | 0.00 | 0.00 | 0.00 | 98 | 1031.7 | |
| 20260830203021 | 3 | 0.0 | 0.0 | 0.00 | 0.00 | 0.00 | 97 | 1031.7 | |
| 20260830202020 | 3 | 0.0 | 0.0 | 0.00 | 0.00 | 0.00 | 97 | 1031.7 | |
| 20260830201022 | 3 | 0.0 | 0.0 | 0.00 | 0.00 | 0.00 | 97 | 1031.7 | |
| 20260830200020 | 3 | 0.0 | 0.0 | 0.00 | 0.00 | 0.00 | 97 | 1031.6 | |
| 20260830195020 | 3 | 0.0 | 0.0 | 0.00 | 0.00 | 0.00 | 97 | 1031.5 | |
| 20260830194021 | 3 | 0.0 | 0.0 | 0.00 | 0.00 | 0.00 | 97 | 1031.5 | |
| 20260830193020 | 3 | 0.0 | 0.0 | 0.00 | 0.00 | 0.00 | 97 | 1031.4 | |
| 20260830192021 | 3 | 0.0 | 0.0 | 0.00 | 0.00 | 0.00 | 96 | 1031.4 | |
| 20260830191020 | 3 | 0.0 | 0.0 | 0.00 | 0.00 | 0.00 | 96 | 1031.4 | |
| 20260830190020 | 3 | 0.0 | 0.0 | 0.00 | 0.00 | 0.00 | 96 | 1031.2 | |
| 20260830185020 | 3 | 0.0 | 0.0 | 0.00 | 0.00 | 0.00 | 96 | 1031.3 | |
| 20260830184020 | 4 | 0.0 | 0.0 | 0.00 | 0.00 | 0.00 | 97 | 1031.2 | |
| 20260830183020 | 3 | 0.0 | 0.0 | 0.00 | 0.00 | 0.00 | 97 | 1031.2 | |
| 20260830182020 | 3 | 0.0 | 0.0 | 0.00 | 0.00 | 0.00 | 96 | 1031.3 | |
| 20260830181020 | 3 | 0.0 | 0.0 | 0.00 | 0.00 | 0.00 | 96 | 1031.2 | |
| 20260830180021 | 3 | 0.0 | 0.0 | 0.00 | 0.00 | 0.00 | 97 | 1031.2 | |
| 20260830175021 | 3 | 0.0 | 0.0 | 0.00 | 0.00 | 0.00 | 96 | 1031.0 | |
| 20260830174021 | 3 | 0.0 | 0.0 | 0.00 | 0.00 | 0.00 | 96 | 1031.0 | |
| 20260830173020 | 4 | 0.0 | 0.0 | 0.00 | 0.00 | 0.00 | 96 | 1031.1 | |
| 20260830172020 | 4 | 0.0 | 0.0 | 0.00 | 0.00 | 0.00 | 96 | 1031.0 | |
| 20260830171020 | 4 | 0.0 | 0.0 | 0.00 | 0.00 | 0.00 | 96 | 1030.8 | |
| 20260830170020 | 5 | 0.0 | 0.0 | 0.00 | 0.00 | 0.00 | 96 | 1030.8 | |
| 20260830165343 | 5 | 0.0 | 0.0 | 0.00 | 0.00 | 0.00 | 96 | 1030.9 | |
| 20260830164022 | 5 | 0.0 | 0.0 | 0.00 | 0.00 | 0.00 | 96 | 1030.9 | |
| 20260830163020 | 5 | 0.0 | 0.0 | 0.00 | 0.00 | 0.00 | 96 | 1030.9 | |
| 20260830162021 | 5 | 0.0 | 0.0 | 0.00 | 0.00 | 0.00 | 97 | 1030.9 | |
| 20260830161020 | 5 | 0.0 | 0.0 | 0.00 | 0.00 | 0.00 | 96 | 1031.1 | |
| 20260830160020 | 5 | 0.0 | 0.0 | 0.00 | 0.00 | 0.00 | 96 | 1031.2 | |
| 20260830155200 | 5 | 0.0 | 0.0 | 0.00 | 0.00 | 0.00 | 95 | 1031.1 | |
| 20260830154022 | 5 | 0.0 | 0.0 | 0.00 | 0.00 | 0.00 | 95 | 1031.3 | |
| 20260830153020 | 5 | 0.0 | 0.0 | 0.00 | 0.00 | 0.00 | 95 | 1031.4 | |
| 20260830152021 | 5 | 0.0 | 0.0 | 0.00 | 0.00 | 0.00 | 95 | 1031.4 | |
| 20260830151020 | 5 | 0.0 | 0.0 | 0.00 | 0.00 | 0.00 | 95 | 1031.4 | |
| 20260830150340 | 5 | 0.0 | 0.0 | 0.00 | 0.00 | 0.00 | 95 | 1031.4 | |
| 20260830145021 | 5 | 0.0 | 0.0 | 0.00 | 0.00 | 0.00 | 95 | 1031.6 | |
| 20260830144020 | 5 | 0.0 | 0.0 | 0.00 | 0.00 | 0.00 | 94 | 1031.6 | |
| 20260830143021 | 5 | 0.0 | 0.0 | 0.00 | 0.00 | 0.00 | 94 | 1031.7 | |
| 20260830142022 | 6 | 0.0 | 0.0 | 0.00 | 0.00 | 0.00 | 94 | 1031.7 | |
| 20260830141020 | 6 | 0.0 | 0.0 | 0.00 | 0.00 | 0.00 | 94 | 1031.7 | |
| 20260830140020 | 6 | 0.0 | 0.0 | 0.00 | 0.00 | 0.00 | 94 | 1031.6 | |
| 20260830135021 | 6 | 0.0 | 0.0 | 0.00 | 0.00 | 0.00 | 94 | 1031.4 | |
| 20260830134020 | 6 | 0.0 | 0.0 | 0.00 | 0.00 | 0.00 | 94 | 1031.3 | |
| 20260830133021 | 6 | 0.0 | 0.0 | 0.00 | 0.00 | 0.00 | 94 | 1031.5 | |
| 20260830132200 | 7 | 0.0 | 0.0 | 0.00 | 0.00 | 0.00 | 94 | 1031.4 | |
| 20260830131020 | 7 | 0.0 | 0.0 | 0.00 | 0.00 | 0.00 | 94 | 1031.4 | |
| 20260830130020 | 7 | 0.0 | 0.0 | 0.00 | 0.00 | 0.00 | 94 | 1031.3 | |
| 20260830125021 | 7 | 0.0 | 0.0 | 0.00 | 0.00 | 0.00 | 94 | 1031.2 | |
| 20260830124020 | 7 | 0.0 | 0.0 | 0.00 | 0.00 | 0.00 | 93 | 1031.2 | |
| 20260830123020 | 7 | 0.0 | 0.0 | 0.00 | 0.00 | 0.00 | 92 | 1031.1 | |
| 20260830122020 | 7 | 0.0 | 0.0 | 0.00 | 0.00 | 0.00 | 92 | 1030.9 | |
| 20260830121020 | 7 | 0.0 | 0.0 | 0.00 | 0.00 | 0.00 | 92 | 1031.0 | |
| 20260830120020 | 7 | 0.0 | 0.0 | 0.00 | 0.00 | 0.00 | 92 | 1031.1 | |
| 20260830115020 | 7 | 0.0 | 0.0 | 0.00 | 0.00 | 0.00 | 92 | 1031.2 | |
| 20260830114020 | 7 | 0.0 | 0.0 | 0.00 | 0.00 | 0.00 | 91 | 1031.2 | |
| 20260830113020 | 8 | 0.0 | 0.0 | 0.00 | 0.00 | 0.00 | 91 | 1031.2 | |
| 20260830112021 | 8 | 0.0 | 0.0 | 0.00 | 0.00 | 0.00 | 91 | 1031.3 | |
| 20260830111024 | 8 | 0.0 | 0.0 | 0.00 | 0.00 | 0.00 | 91 | 1031.3 | |
| 20260830110019 | 9 | 0.0 | 0.0 | 0.00 | 0.00 | 0.00 | 91 | 1031.2 | |
| 20260830105020 | 9 | 0.0 | 0.0 | 0.00 | 0.00 | 0.00 | 90 | 1031.1 | |
| 20260830104021 | 10 | 0.0 | 0.0 | 0.00 | 0.00 | 0.00 | 90 | 1031.2 | |
| 20260830103019 | 10 | 0.0 | 0.0 | 0.00 | 0.00 | 0.00 | 90 | 1031.1 | |
| 20260830102020 | 10 | 0.0 | 0.0 | 0.00 | 0.00 | 0.00 | 89 | 1031.1 | |
| 20260830101020 | 10 | 0.0 | 0.0 | 0.00 | 0.00 | 0.00 | 89 | 1031.0 | |
| 20260830100020 | 10 | 0.0 | 0.0 | 0.00 | 0.00 | 0.00 | 87 | 1030.8 | |
| 20260830095020 | 10 | 0.0 | 0.0 | 0.00 | 0.00 | 0.00 | 87 | 1030.5 | |
| 20260830094021 | 11 | 0.0 | 0.0 | 0.00 | 0.00 | 0.00 | 86 | 1030.3 | |
| 20260830093020 | 11 | 0.0 | 0.0 | 0.00 | 0.00 | 0.00 | 85 | 1030.3 | |
| 20260830092200 | 11 | 0.0 | 0.0 | 0.00 | 0.00 | 0.00 | 84 | 1030.3 | |
| 20260830091020 | 12 | 0.0 | 0.0 | 0.00 | 0.00 | 0.00 | 84 | 1030.2 | |
| 20260830090200 | 12 | 0.0 | 0.0 | 0.00 | 0.00 | 0.00 | 83 | 1030.1 | |
| 20260830085022 | 13 | 0.0 | 0.0 | 0.00 | 0.00 | 0.00 | 81 | 1030.0 | |
| 20260830084020 | 13 | 0.0 | 0.0 | 0.00 | 0.00 | 0.00 | 79 | 1029.9 | |
| 20260830083020 | 13 | 0.0 | 0.0 | 0.00 | 0.00 | 0.00 | 78 | 1029.9 | |
| 20260830082021 | 14 | 0.0 | 0.0 | 0.00 | 0.00 | 0.00 | 77 | 1029.8 | |
| 20260830081200 | 15 | 0.0 | 0.0 | 0.00 | 0.00 | 0.00 | 75 | 1029.8 | |
| 20260830080020 | 16 | 0.0 | 0.0 | 0.00 | 0.00 | 0.00 | 73 | 1029.7 | |
| 20260830075202 | 16 | 0.0 | 0.0 | 0.00 | 0.00 | 0.00 | 71 | 1029.7 | |
| 20260830074020 | 17 | 0.0 | 0.0 | 0.00 | 0.00 | 0.00 | 68 | 1029.7 | |
| 20260830073020 | 18 | 0.0 | 0.0 | 0.00 | 0.00 | 0.00 | 64 | 1029.6 | |
| 20260830072022 | 18 | 0.0 | 0.0 | 0.00 | 0.00 | 0.00 | 63 | 1029.5 | |
| 20260830071022 | 19 | 0.0 | 0.0 | 0.00 | 0.00 | 0.00 | 62 | 1029.5 | |
| 20260830070020 | 20 | 0.0 | 0.0 | 0.00 | 0.00 | 0.00 | 60 | 1029.5 | |
| 20260830065022 | 20 | 0.0 | 1.6 | 0.00 | 0.00 | 0.00 | 57 | 1029.5 | |
| 20260830064022 | 21 | 0.0 | 1.6 | 0.00 | 0.00 | 0.00 | 56 | 1029.6 | |
| 20260830063022 | 22 | 0.0 | 0.0 | 0.00 | 0.00 | 0.00 | 54 | 1029.6 | |
| 20260830062021 | 24 | 0.0 | 1.6 | 0.00 | 0.00 | 0.00 | 48 | 1029.6 | |
| 20260830061022 | 25 | 0.0 | 1.6 | 0.00 | 0.00 | 0.00 | 47 | 1029.7 | |
| 20260830060203 | 25 | 0.0 | 1.6 | 0.00 | 0.00 | 0.00 | 48 | 1029.7 | |
| 20260830055022 | 25 | 0.0 | 0.0 | 0.00 | 0.00 | 0.00 | 49 | 1029.7 | |
| 20260830054200 | 24 | 0.0 | 1.6 | 0.00 | 0.00 | 0.00 | 49 | 1029.7 | |
| 20260830053023 | 24 | 0.0 | 0.0 | 0.00 | 0.00 | 0.00 | 48 | 1029.8 | |
| 20260830052020 | 24 | 0.0 | 0.0 | 0.00 | 0.00 | 0.00 | 50 | 1029.8 | |
| 20260830051020 | 23 | 0.0 | 1.6 | 0.00 | 0.00 | 0.00 | 53 | 1029.8 | |
| 20260830050020 | 22 | 0.0 | 1.6 | 0.00 | 0.00 | 0.00 | 52 | 1029.8 | |
| 20260830045022 | 22 | 0.0 | 1.6 | 0.00 | 0.00 | 0.00 | 52 | 1029.9 | |
| 20260830044020 | 23 | 0.0 | 0.0 | 0.00 | 0.00 | 0.00 | 50 | 1030.0 | |
| 20260830043022 | 23 | 0.0 | 0.0 | 0.00 | 0.00 | 0.00 | 50 | 1030.0 | |
| 20260830042021 | 23 | 0.0 | 3.2 | 0.00 | 0.00 | 0.00 | 49 | 1030.2 | |
| 20260830041206 | 23 | 0.0 | 0.0 | 0.00 | 0.00 | 0.00 | 51 | 1030.3 |